TimeMST,TemperatureF,Dew PointF,Humidity,Sea Level PressureIn,VisibilityMPH,Wind Direction,Wind SpeedMPH,Gust SpeedMPH,PrecipitationIn,Events,Conditions,WindDirDegrees,DateUTC
12:15 AM,57.2,50.0,77,29.85,7.0,SW,8.1,-,0.04,Rain,Light Rain,230,2012-11-10 07:15:00
12:35 AM,53.6,48.2,82,29.85,5.0,WSW,9.2,-,0.05,Rain,Rain,240,2012-11-10 07:35:00
12:55 AM,53.6,46.4,77,29.85,7.0,SW,6.9,-,0.06,,Drizzle,230,2012-11-10 07:55:00
1:15 AM,51.8,46.4,82,29.85,7.0,SW,10.4,-,0.01,Rain,Light Rain,230,2012-11-10 08:15:00
1:35 AM,51.8,46.4,82,29.85,7.0,West,6.9,-,0.02,Rain,Light Rain,260,2012-11-10 08:35:00
1:55 AM,51.8,46.4,82,29.86,7.0,WSW,8.1,-,0.04,Rain,Light Rain,250,2012-11-10 08:55:00
2:15 AM,51.8,46.4,82,29.87,10.0,SW,8.1,-,N/A,Rain,Rain,230,2012-11-10 09:15:00
2:35 AM,51.8,46.4,82,29.87,10.0,SSW,8.1,-,0.02,Rain,Light Rain,200,2012-11-10 09:35:00
3:15 AM,51.8,46.4,82,29.86,10.0,SE,5.8,-,N/A,Rain,Light Rain,140,2012-11-10 10:15:00
3:35 AM,51.8,46.4,82,29.88,10.0,SSE,9.2,-,N/A,,Clear,160,2012-11-10 10:35:00
3:55 AM,51.8,46.4,82,29.88,10.0,SE,10.4,-,N/A,,Clear,140,2012-11-10 10:55:00
4:15 AM,51.8,46.4,82,29.89,10.0,SSE,11.5,-,N/A,,Clear,150,2012-11-10 11:15:00
4:35 AM,51.8,48.2,88,29.89,10.0,SSE,10.4,-,N/A,,Clear,150,2012-11-10 11:35:00
4:55 AM,51.8,48.2,88,29.91,10.0,SSE,10.4,-,N/A,,Light Drizzle,160,2012-11-10 11:55:00
5:15 AM,51.8,48.2,88,29.92,10.0,SSE,9.2,-,N/A,,Clear,150,2012-11-10 12:15:00
5:47 AM,51.8,46.4,82,29.93,20.0,SSE,12.7,-,N/A,Rain,Light Rain,150,2012-11-10 12:47:00
6:47 AM,51.8,46.4,82,29.95,30.0,SE,9.2,-,N/A,,Mostly Cloudy,130,2012-11-10 13:47:00
7:49 AM,51.8,44.6,76,29.98,30.0,ESE,6.9,-,N/A,,Scattered Clouds,110,2012-11-10 14:49:00
8:53 AM,53.6,44.6,72,30.00,30.0,SSW,5.8,-,N/A,,Partly Cloudy,210,2012-11-10 15:53:00
9:50 AM,55.4,37.4,51,30.11,30.0,SSW,6.9,-,N/A,,Partly Cloudy,210,2012-11-10 16:50:00
10:51 AM,57.2,33.8,41,30.01,30.0,WSW,6.9,-,N/A,,Scattered Clouds,240,2012-11-10 17:51:00
11:53 AM,59.0,33.8,39,30.00,30.0,SW,8.1,-,N/A,,Mostly Cloudy,230,2012-11-10 18:53:00
12:47 PM,60.8,33.8,36,29.98,30.0,SW,15.0,19.6,N/A,,Mostly Cloudy,220,2012-11-10 19:47:00
2:40 PM,60.8,26.6,27,29.93,30.0,West,8.1,13.8,N/A,,Mostly Cloudy,270,2012-11-10 21:40:00
3:47 PM,60.8,24.8,25,29.94,30.0,WSW,9.2,20.7,N/A,,Mostly Cloudy,250,2012-11-10 22:47:00
4:47 PM,60.8,26.6,27,29.95,30.0,SW,11.5,23.0,N/A,,Mostly Cloudy,230,2012-11-10 23:47:00
5:47 PM,57.2,26.6,31,29.95,20.0,SW,16.1,-,N/A,,Mostly Cloudy,220,2012-11-11 00:47:00
6:47 PM,57.2,28.4,33,29.99,20.0,West,12.7,21.9,N/A,,Mostly Cloudy,260,2012-11-11 01:47:00
7:50 PM,55.4,30.2,38,30.02,20.0,West,19.6,28.8,N/A,Rain,Light Rain,280,2012-11-11 02:50:00
7:55 PM,55.4,30.2,38,30.02,7.0,WNW,16.1,29.9,N/A,,Clear,290,2012-11-11 02:55:00
8:15 PM,55.4,28.4,36,30.01,10.0,WNW,6.9,-,N/A,,Clear,290,2012-11-11 03:15:00
8:35 PM,51.8,30.2,44,30.02,10.0,WSW,3.5,-,N/A,,Clear,240,2012-11-11 03:35:00
8:55 PM,51.8,32.0,47,30.02,10.0,SW,4.6,-,N/A,,Clear,230,2012-11-11 03:55:00
9:15 PM,51.8,33.8,50,30.03,10.0,WSW,4.6,-,N/A,,Clear,240,2012-11-11 04:15:00
9:35 PM,51.8,33.8,50,30.04,10.0,WSW,4.6,-,N/A,,Clear,250,2012-11-11 04:35:00
9:55 PM,50.0,33.8,54,30.05,10.0,Calm,Calm,-,N/A,,Clear,0,2012-11-11 04:55:00
10:15 PM,51.8,32.0,47,30.06,10.0,Calm,Calm,-,N/A,,Clear,0,2012-11-11 05:15:00
10:35 PM,51.8,33.8,50,30.07,10.0,Calm,Calm,-,N/A,,Clear,0,2012-11-11 05:35:00
10:55 PM,50.0,32.0,50,30.07,10.0,Calm,Calm,-,N/A,,Clear,0,2012-11-11 05:55:00
11:15 PM,46.4,32.0,57,30.08,10.0,Calm,Calm,-,N/A,,Clear,0,2012-11-11 06:15:00
11:35 PM,44.6,32.0,61,30.09,10.0,SSW,5.8,-,N/A,,Clear,210,2012-11-11 06:35:00
11:55 PM,46.4,32.0,57,30.09,10.0,SW,4.6,-,N/A,,Clear,220,2012-11-11 06:55:00